Torna al catalogo

BSAT-1A

AttivoComunicazioniGEO
NORAD 24769·PAYLOAD·🇯🇵 Japan

Lanciato Apr 16, 1997 da Guiana Space Centre

Loading…

TLE

AggiornatoSource: Space-Track

Epoca: Sep 14, 2026, 13:23 UTC

1 24769U 97016B   26257.55830394 -.00000229  00000-0  00000-0 0  9994
2 24769  11.3263  40.1690 0003255 235.0005  89.1093  0.99124093 47688

Traccia BSAT-1A in tempo reale con AllMySat

Download on the App Store